EHI
0 0 0 0 0 0 0 0 1 2 2 1 1 2 2 2 1 0 0 0 2 6 12 18 22 23 24 27 30 32 35 38 39 37 35 34 33 31 31 30 27 23 20 18 17 15 11 8 7
0 0 0 0 0 0 0 0 1 2 2 2 1 1 1 1 1 0 0 1 4 8 12 17 20 21 23 26 28 29 32 36 39 38 36 34 32 30 29 27 25 22 20 19 17 15 12 10 8
0 0 0 0 0 0 0 0 1 2 2 1 1 0 0 0 1 0 1 2 5 8 12 16 18 18 19 23 24 24 26 29 31 31 31 30 29 28 26 25 23 21 21 20 17 14 12 11 10
0 0 0 0 0 0 0 0 1 1 1 0 0 0 0 0 1 1 2 4 7 10 12 15 16 15 16 19 20 20 20 20 20 20 22 23 24 24 23 22 21 20 20 19 16 13 12 11 10
0 0 0 0 0 0 0 0 0 0 0 0 0 0 0 1 2 3 4 7 10 12 13 15 16 16 17 19 19 19 18 17 16 16 17 18 19 19 19 17 17 17 17 15 14 12 11 12 11
0 0 0 0 0 0 0 0 0 0 0 0 1 1 1 2 4 6 7 10 12 14 14 14 16 17 18 20 20 19 18 17 15 14 14 15 15 16 16 14 14 15 15 12 10 9 10 11 11
0 0 0 0 0 0 0 0 0 0 0 2 3 2 2 4 7 9 11 11 13 13 13 13 13 13 16 18 18 18 17 16 13 11 11 12 13 14 14 14 13 14 13 10 7 6 7 8 9
0 0 0 0 0 0 0 0 0 0 1 4 5 3 3 7 11 14 14 12 11 10 10 11 11 11 12 15 17 18 17 15 13 12 12 12 12 12 12 12 11 10 9 8 7 6 5 5 6
0 0 0 0 0 0 0 0 0 1 3 6 7 5 7 13 17 18 15 12 9 6 7 9 10 10 10 13 16 17 16 14 12 12 12 11 11 11 10 8 7 6 6 6 7 7 6 6 6
0 0 0 0 0 0 0 0 1 2 4 6 8 9 14 20 20 17 14 13 9 6 5 7 9 9 9 11 13 14 12 10 9 8 8 9 10 10 8 6 5 4 4 5 5 6 7 8 9
0 0 0 0 0 0 0 1 2 3 4 5 7 11 16 19 17 13 11 11 9 6 4 5 7 8 7 8 9 9 8 7 5 5 5 7 8 8 8 7 6 5 5 6 5 5 6 8 10
0 0 0 0 0 0 1 2 4 5 5 6 8 12 15 15 14 11 10 9 7 5 3 4 5 6 7 6 6 6 6 6 4 4 5 6 6 7 8 8 8 7 8 9 8 6 5 5 6
0 0 0 0 0 1 2 5 7 7 8 9 12 13 13 13 12 10 9 8 6 4 3 3 3 5 6 6 5 5 5 5 4 4 5 6 6 6 7 9 9 9 10 10 9 8 6 5 4
0 0 0 0 0 1 3 7 9 10 11 13 14 12 11 12 11 10 8 6 4 4 3 2 1 2 5 6 5 4 4 4 3 3 4 5 6 6 7 7 7 8 9 8 7 7 7 5 4
0 0 0 0 0 1 3 6 9 11 12 14 15 13 11 10 10 9 8 6 4 4 3 2 0 1 3 6 6 5 4 3 3 3 3 4 5 6 6 5 5 6 6 6 5 5 5 4 3
0 0 0 0 1 1 2 4 7 12 13 14 15 14 11 8 6 5 6 6 5 4 3 1 0 0 2 4 6 6 4 3 3 3 3 3 4 5 5 4 4 4 4 4 4 4 3 2 2
0 0 0 0 2 3 4 4 7 12 14 14 14 12 7 4 2 2 3 5 4 3 2 1 0 0 0 2 5 6 4 3 3 3 3 3 3 4 4 3 2 2 2 2 2 2 1 0 1
0 0 0 0 2 5 7 6 8 12 14 15 14 10 4 1 0 0 1 1 1 1 1 0 0 0 0 1 3 5 4 2 2 2 3 3 2 1 1 1 1 1 1 1 0 0 0 0 0
0 0 0 1 3 5 6 5 7 11 14 14 12 8 3 1 0 0 0 0 0 0 0 0 0 0 0 0 1 3 3 2 2 2 2 2 1 0 0 0 0 0 0 0 0 0 0 0 0
0 0 0 2 3 3 2 2 5 8 11 11 8 5 3 2 1 0 0 0 0 0 0 0 0 0 0 0 0 1 1 1 2 2 2 1 1 0 0 0 0 0 0 0 0 0 0 0 0
0 0 0 1 2 1 0 1 3 5 7 6 5 3 3 3 2 1 0 0 0 0 0 0 0 0 0 0 0 0 0 0 1 2 2 1 0 0 0 0 0 0 0 0 0 0 0 0 0
0 0 0 0 0 0 0 0 1 2 3 3 3 3 3 3 4 3 2 1 0 0 0 0 0 0 0 0 0 0 0 0 0 1 1 1 0 0 0 0 0 0 0 0 0 0 0 0 0
0 0 0 0 0 0 0 0 0 1 1 1 3 3 3 4 5 5 4 2 1 0 0 0 0 0 0 0 0 0 0 0 0 0 0 0 0 0 0 0 0 0 0 0 0 0 0 0 0
0 0 0 0 0 0 0 0 0 0 0 1 2 3 3 4 5 6 5 3 1 0 0 0 0 0 0 0 0 0 0 0 0 0 0 0 0 0 0 0 0 0 0 0 0 0 0 0 0
0 0 0 0 0 0 0 0 0 0 0 0 1 2 3 4 4 5 4 2 0 0 0 0 0 0 0 0 0 0 0 0 0 0 0 0 0 0 0 0 0 0 0 0 0 0 0 0 0
0 0 0 0 0 0 0 0 0 0 0 0 1 2 3 2 3 3 3 2 0 0 0 0 0 0 0 0 0 0 0 0 0 0 0 0 0 0 0 0 0 0 0 0 0 0 0 0 0
0 0 0 0 0 0 0 0 0 0 0 0 1 2 2 1 1 2 2 1 0 0 0 0 0 0 0 0 0 0 0 0 0 0 0 0 0 0 0 0 0 0 0 0 0 0 0 0 0
0 0 0 0 0 0 0 0 0 0 0 0 1 2 2 1 1 1 1 0 0 0 0 0 0 0 0 0 0 0 0 0 0 0 0 0 0 0 0 0 0 0 0 0 0 0 0 0 0
0 0 0 0 0 0 0 0 0 0 0 0 1 2 2 1 0 0 0 0 0 0 0 0 0 0 0 0 0 0 0 0 0 0 0 0 0 0 0 0 0 0 0 0 0 0 0 0 0
0 0 0 0 0 0 0 0 0 0 0 0 1 2 1 0 0 0 0 0 0 0 0 0 0 0 0 0 0 0 0 0 0 0 0 0 0 0 0 0 0 0 0 0 0 0 0 0 0
Wind_Speed
2 2 2 2 5 5 2 3 2 2 2 1 2 3 4 3 2 2 0 6 7 7 6 8 11 11 11 11 11 11 11 12 11 11 11 11 11 11 11 11 10 10 10 11 10 9 9 8 8
2 2 2 4 5 2 3 3 2 2 1 1 3 4 4 3 2 3 2 4 8 8 6 6 10 11 11 11 10 10 11 11 11 10 10 10 10 9 9 10 9 9 9 9 9 9 8 8 7
2 1 4 5 3 3 3 2 1 1 0 0 2 3 3 1 1 2 3 7 7 7 6 6 10 10 11 10 10 10 10 10 10 9 9 9 9 8 8 8 8 8 8 7 8 8 8 7 7
2 3 5 5 1 3 3 3 1 1 1 2 3 3 2 2 1 3 7 8 8 6 5 6 10 10 10 10 10 9 9 9 8 8 7 7 7 7 7 7 7 8 8 7 7 7 7 7 7
3 4 5 2 2 3 3 3 2 1 0 1 2 3 2 3 5 8 8 8 8 6 4 5 9 9 9 9 9 8 8 8 7 6 6 6 6 6 6 6 7 7 7 6 6 6 6 6 6
4 4 4 1 3 3 3 2 0 1 1 2 3 3 1 2 6 6 7 6 6 6 4 4 7 8 7 8 8 7 6 6 6 6 5 5 6 5 5 5 5 5 6 6 6 6 6 6 6
4 4 3 2 3 4 3 1 2 2 1 2 3 4 1 2 4 6 7 7 6 5 5 3 3 4 6 6 6 6 5 4 4 4 4 4 5 5 5 5 5 5 5 6 6 6 6 6 6
4 5 2 2 3 4 2 1 1 3 2 2 3 5 4 4 6 7 7 7 6 4 4 3 3 3 2 3 4 5 4 4 3 3 3 2 2 3 4 3 4 5 5 5 5 6 6 6 6
4 5 2 4 5 4 2 0 0 1 3 2 2 2 4 10 10 8 6 5 4 4 2 2 3 3 2 2 3 3 3 3 2 2 2 1 0 0 1 2 4 4 5 5 6 6 6 6 6
4 3 7 5 5 3 1 1 1 2 2 2 3 5 9 11 9 8 7 6 5 4 2 2 2 2 2 2 2 1 1 2 1 1 1 1 1 0 1 2 3 4 4 5 5 5 4 4 2
4 6 5 4 4 3 1 1 1 4 3 5 7 9 10 10 8 8 7 6 5 4 3 2 2 2 2 1 2 1 1 1 1 1 1 1 1 1 1 1 1 2 3 2 3 3 2 2 2
3 5 4 3 2 3 3 2 1 3 4 4 8 10 10 10 9 8 7 6 5 4 3 2 2 2 2 2 1 1 1 1 0 0 1 1 0 1 1 0 1 1 1 1 2 2 2 2 3
3 4 2 3 1 2 1 2 2 1 2 7 9 10 10 9 6 5 5 5 5 4 3 2 2 2 1 2 1 1 0 0 0 0 0 1 0 0 1 1 1 1 1 1 2 2 2 3 3
3 2 3 3 1 1 3 0 2 1 5 8 9 8 7 7 6 5 5 4 4 3 2 2 1 1 1 1 1 0 0 0 0 0 1 1 1 1 1 1 1 1 1 1 2 2 2 2 2
1 2 4 2 1 1 4 2 0 1 6 7 7 7 6 5 5 5 6 5 4 3 2 2 2 1 1 1 0 0 0 0 0 0 1 1 1 1 1 1 1 1 1 1 1 1 1 2 2
3 3 2 4 2 1 4 3 2 2 7 7 6 6 5 3 3 3 4 4 3 3 2 2 2 2 1 0 0 0 0 0 0 1 1 2 2 1 1 1 1 1 1 1 1 1 1 2 2
4 1 2 4 1 2 3 2 2 1 5 6 6 5 4 3 1 1 2 3 2 2 2 1 1 1 0 0 0 0 0 0 1 1 1 2 2 2 1 1 1 1 1 1 2 1 1 2 2
2 2 2 3 2 3 2 1 2 1 5 6 5 5 4 3 3 2 2 3 2 2 2 1 1 1 1 1 1 1 1 1 1 1 1 2 1 1 1 1 1 1 1 1 1 2 1 2 2
2 2 2 4 2 3 3 1 2 1 3 4 3 4 4 3 2 2 2 2 2 1 2 1 1 0 1 1 0 0 1 1 1 1 2 2 2 1 1 1 1 1 1 2 2 2 2 1 1
2 1 2 2 1 3 2 1 2 1 2 3 3 3 3 2 1 1 1 1 2 2 1 2 1 1 0 0 1 1 1 1 2 2 2 2 2 2 1 1 2 2 1 2 2 2 1 1 1
2 3 3 2 2 3 2 2 2 1 1 2 2 2 2 3 3 3 3 2 2 2 2 2 2 1 1 0 0 1 1 1 1 1 2 2 2 2 2 2 2 2 2 2 2 2 2 2 1
3 4 4 3 2 1 1 1 4 1 0 1 2 2 3 3 3 4 3 2 2 2 1 1 2 1 1 1 1 1 1 1 2 2 2 3 2 2 2 2 2 2 2 2 2 1 2 2 2
4 1 3 3 3 2 3 1 5 1 2 4 5 5 4 3 4 4 3 3 2 1 1 1 1 1 1 1 1 1 1 2 2 2 2 2 2 3 2 2 1 1 1 2 2 1 1 2 2
4 5 5 5 4 1 2 2 5 3 5 4 5 4 3 3 2 2 1 2 1 1 1 1 0 1 1 1 1 1 1 1 2 2 2 2 2 2 3 2 1 1 1 1 2 2 2 2 2
4 5 3 4 3 3 1 2 6 5 4 4 4 4 3 2 2 2 1 1 1 1 1 1 1 1 1 1 1 1 1 2 2 2 2 2 2 2 3 2 1 1 1 2 2 2 2 2 2
3 7 6 3 4 3 1 4 6 3 2 2 2 2 2 2 2 2 2 2 1 1 1 1 1 1 1 1 1 1 1 1 1 2 2 2 2 3 3 2 1 2 2 2 1 2 2 2 3
4 3 4 6 2 1 4 4 5 1 2 2 1 2 1 1 1 2 1 1 1 1 1 1 1 1 1 1 1 1 1 1 2 2 2 2 2 3 2 2 2 2 2 2 2 2 2 2 2
4 7 5 5 3 2 4 3 4 4 3 1 1 1 1 1 1 1 1 1 0 0 0 0 1 1 1 1 2 2 2 2 2 1 2 3 3 3 3 2 2 2 2 2 1 1 1 1 1
3 3 5 4 4 4 3 5 4 4 3 3 3 2 2 2 2 1 0 0 1 1 1 0 0 1 1 1 2 2 2 2 2 1 2 2 2 2 2 2 2 2 2 2 1 1 1 1 1
3 4 6 4 3 3 3 6 3 2 3 3 2 2 2 2 1 1 1 1 1 1 1 1 1 1 1 1 1 2 2 2 2 2 3 3 3 2 2 2 2 2 2 1 1 2 2 1 1
Wind_Direction
177 120 109 73 56 48 330 281 261 315 334 2 65 91 106 99 137 170 172 136 131 134 143 148 145 142 138 133 131 127 126 128 130 133 137 140 143 147 151 154 157 163 168 169 170 173 174 174 176
139 134 75 63 78 52 294 271 280 266 208 153 52 65 75 65 64 108 125 137 135 135 135 144 146 143 139 135 132 129 129 131 133 136 140 144 148 151 156 158 160 161 167 172 175 178 177 177 180
161 119 84 72 96 174 245 261 240 316 245 16 62 55 78 82 100 140 152 134 123 124 127 142 145 143 141 138 136 134 134 133 134 139 142 147 154 158 161 166 168 170 174 179 183 183 183 182 184
111 55 56 70 147 228 226 249 251 283 357 41 100 75 66 39 138 137 130 128 122 120 127 144 145 143 142 140 137 137 136 137 138 143 148 153 158 164 169 174 176 179 183 187 190 192 191 193 195
65 76 61 33 276 262 250 258 239 217 161 68 101 101 34 18 86 114 125 126 126 123 125 138 140 141 141 137 136 137 139 142 145 150 156 160 161 166 173 180 185 190 192 194 199 204 200 201 204
60 66 80 298 285 280 261 228 161 96 112 98 102 105 43 68 103 116 118 117 119 121 116 124 138 139 136 133 133 133 137 143 151 157 164 171 176 182 189 193 196 202 205 208 210 210 205 208 212
104 101 147 207 268 285 251 177 159 156 147 174 140 118 95 92 112 113 107 104 104 109 111 107 123 134 137 135 134 133 131 132 143 154 165 181 190 197 202 204 212 218 225 227 227 223 222 219 218
126 105 123 217 232 262 248 167 168 154 162 132 123 141 180 163 123 107 99 96 98 98 102 100 96 98 111 132 142 138 134 135 142 149 155 171 197 210 216 220 226 227 230 234 236 234 232 230 227
98 82 204 217 208 247 239 117 338 124 119 103 90 145 147 129 123 114 107 101 108 109 101 103 100 90 98 119 131 124 128 123 119 128 126 111 33 289 250 250 248 244 245 246 245 244 240 236 236
103 150 226 218 201 218 244 208 195 102 109 108 85 92 120 130 137 139 142 143 143 149 148 119 110 107 109 125 109 96 91 87 87 83 83 74 44 346 312 303 272 268 263 259 254 251 246 243 245
163 201 234 243 213 199 205 256 174 141 196 196 169 153 141 141 146 154 155 152 156 157 152 134 126 115 109 96 96 93 91 90 81 62 56 51 48 11 1 338 311 305 294 288 282 269 253 241 235
188 244 234 251 199 172 187 182 167 187 218 173 153 148 144 151 161 164 158 155 153 148 150 143 126 123 114 103 107 122 129 134 136 139 102 85 41 356 353 327 306 297 291 290 286 267 253 246 239
215 262 257 251 252 186 148 192 162 153 113 114 128 140 148 153 159 155 148 149 150 155 156 153 132 123 114 109 124 122 156 161 211 263 207 140 154 265 312 301 306 300 292 280 279 272 262 254 250
228 251 296 299 279 154 129 88 94 183 129 123 136 148 154 154 155 152 153 157 159 156 150 144 134 130 129 133 133 134 158 184 160 278 258 231 203 219 253 281 292 288 279 271 264 264 266 264 254
331 11 345 336 27 95 105 27 250 179 136 133 142 146 146 145 152 165 169 163 163 160 154 159 159 121 112 126 132 112 135 138 140 293 294 270 242 233 234 252 272 278 281 280 281 285 278 267 259
40 48 344 309 29 53 117 239 272 143 149 143 141 142 139 142 154 167 162 160 159 153 153 157 120 103 111 145 201 56 9 34 210 249 266 271 261 240 237 246 264 277 285 273 263 270 266 271 268
33 39 285 306 2 90 118 245 311 143 148 144 144 145 143 137 147 186 168 161 166 159 153 132 97 107 126 215 341 89 31 317 258 249 256 263 263 250 228 245 262 279 287 281 273 265 233 257 267
229 239 268 269 277 107 130 284 350 94 137 142 140 137 142 163 216 209 185 167 167 155 143 139 113 81 71 59 32 29 11 329 315 294 276 269 267 268 237 262 273 278 282 282 268 260 248 247 257
171 185 264 271 229 124 138 81 7 39 111 114 123 140 161 190 212 179 189 173 152 143 132 132 120 8 68 70 49 21 298 300 305 291 287 277 269 270 239 251 271 277 263 264 256 248 259 268 259
158 172 278 314 42 130 128 60 31 76 160 153 152 167 183 189 174 163 171 179 173 174 158 160 165 218 254 234 236 209 225 257 255 271 289 272 265 261 257 246 259 256 251 276 275 241 232 257 213
211 189 214 218 31 53 102 3 4 351 72 95 118 169 177 187 195 195 189 201 193 193 195 192 202 225 248 224 61 21 8 346 336 309 292 281 275 268 261 255 252 258 242 248 253 239 211 226 242
253 222 182 156 109 303 121 247 291 274 272 189 205 206 203 194 195 196 196 205 209 206 191 190 205 213 231 175 163 194 216 272 271 272 275 295 298 295 283 270 256 251 239 244 248 234 219 202 223
209 123 122 124 128 64 17 122 287 327 260 250 228 216 218 205 200 205 200 196 203 184 188 198 194 232 242 225 193 180 255 268 288 299 302 312 315 305 295 281 262 251 242 246 250 247 229 209 212
129 75 63 58 73 38 270 169 276 242 230 248 238 222 217 217 210 203 172 147 163 169 190 194 199 277 276 259 239 186 227 273 306 310 307 312 312 306 307 305 281 259 249 254 251 240 225 222 216
88 88 35 3 12 259 264 190 250 247 227 228 234 221 214 202 185 176 149 146 167 195 193 191 186 273 290 297 301 264 247 248 261 276 281 295 307 303 300 301 281 265 256 258 254 251 249 232 220
157 140 155 198 227 271 306 243 258 262 267 268 237 189 165 178 172 171 182 173 181 191 191 173 187 252 273 288 299 303 286 273 282 280 281 274 271 276 287 302 290 280 279 281 270 257 254 240 232
136 157 158 129 137 306 283 286 301 296 343 1 69 120 153 164 171 180 181 166 165 200 217 195 197 259 296 299 300 302 305 306 293 297 299 287 281 284 293 304 296 299 303 296 287 268 262 251 240
124 142 102 113 142 261 290 278 264 269 262 255 228 197 207 150 173 166 162 173 172 196 299 308 222 241 275 292 299 321 323 305 288 301 310 306 307 312 319 321 314 310 313 307 309 307 304 286 255
100 94 104 112 145 159 254 273 244 229 218 219 226 202 177 179 183 160 118 36 55 52 56 10 298 320 325 314 325 338 331 319 315 308 298 298 301 307 320 317 319 323 323 323 333 334 342 326 300
146 155 145 148 195 163 176 265 293 222 208 196 207 189 178 173 172 139 115 82 69 54 16 348 328 318 304 306 343 346 343 345 343 325 315 308 304 313 324 328 338 322 318 322 326 320 321 285 278